Time,TemperatureF,DewpointF,PressureIn,WindDirection,WindDirectionDegrees,WindSpeedMPH,WindSpeedGustMPH,Humidity,HourlyPrecipIn,Conditions,Clouds,dailyrainin,SoftwareType,DateUTC
2013-02-23 00:00:00,29.1,28.4,30.27,South,178,0.0,0.0,97,0.00,CLR,,0.00,WeatherDisplay:10.37,2013-02-23 05:00:00,
2013-02-23 00:10:00,29.1,28.3,30.27,South,178,0.0,0.0,97,0.00,CLR,,0.00,WeatherDisplay:10.37,2013-02-23 05:10:00,
2013-02-23 00:15:00,29.1,28.1,30.26,South,178,0.0,0.0,96,0.00,CLR,,0.00,WeatherDisplay:10.37,2013-02-23 05:15:00,
2013-02-23 00:20:00,29.2,28.2,30.26,South,178,0.0,0.0,96,0.00,CLR,,0.00,WeatherDisplay:10.37,2013-02-23 05:20:00,
2013-02-23 00:25:00,29.2,28.2,30.26,South,178,0.0,0.0,96,0.00,CLR,,0.00,WeatherDisplay:10.37,2013-02-23 05:25:00,
2013-02-23 00:30:00,29.1,28.4,30.26,South,178,0.0,0.0,97,0.00,CLR,,0.00,WeatherDisplay:10.37,2013-02-23 05:30:00,
2013-02-23 00:40:00,29.1,28.4,30.26,SE,127,0.0,0.0,97,0.00,CLR,,0.00,WeatherDisplay:10.37,2013-02-23 05:40:00,
2013-02-23 00:45:00,29.0,28.3,30.26,ESE,116,0.0,0.0,97,0.00,CLR,,0.00,WeatherDisplay:10.37,2013-02-23 05:45:00,
2013-02-23 00:55:00,28.8,28.3,30.26,ESE,116,0.0,0.0,98,0.00,CLR,,0.00,WeatherDisplay:10.37,2013-02-23 05:55:00,
2013-02-23 01:00:00,28.6,28.1,30.26,ESE,116,0.0,0.0,98,0.00,CLR,,0.00,WeatherDisplay:10.37,2013-02-23 06:00:00,
2013-02-23 01:10:00,28.3,27.8,30.25,ESE,116,0.0,0.0,98,0.00,CLR,,0.00,WeatherDisplay:10.37,2013-02-23 06:10:00,
2013-02-23 01:15:00,28.3,28.1,30.25,ESE,116,0.0,0.0,99,0.00,CLR,,0.00,WeatherDisplay:10.37,2013-02-23 06:15:00,
2013-02-23 01:20:00,28.3,28.1,30.25,ESE,116,0.0,0.0,99,0.00,CLR,,0.00,WeatherDisplay:10.37,2013-02-23 06:20:00,
2013-02-23 01:30:00,28.7,28.4,30.24,ESE,116,0.0,0.0,99,0.00,CLR,,0.00,WeatherDisplay:10.37,2013-02-23 06:30:00,
2013-02-23 01:40:00,28.8,28.5,30.24,ESE,116,0.0,0.0,99,0.00,CLR,,0.00,WeatherDisplay:10.37,2013-02-23 06:40:00,
2013-02-23 01:45:00,28.8,28.3,30.24,ESE,116,0.0,0.0,98,0.00,CLR,,0.00,WeatherDisplay:10.37,2013-02-23 06:45:00,
2013-02-23 01:55:00,28.7,28.5,30.24,ESE,116,0.0,0.0,99,0.00,CLR,,0.00,WeatherDisplay:10.37,2013-02-23 06:55:00,
2013-02-23 02:00:00,28.4,28.2,30.24,ESE,116,0.0,0.0,99,0.00,CLR,,0.00,WeatherDisplay:10.37,2013-02-23 07:00:00,
2013-02-23 02:10:00,28.0,27.8,30.24,ESE,116,0.0,0.0,99,0.00,CLR,,0.00,WeatherDisplay:10.37,2013-02-23 07:10:00,
2013-02-23 02:15:00,27.9,27.9,30.23,ESE,116,0.0,0.0,100,0.00,CLR,,0.00,WeatherDisplay:10.37,2013-02-23 07:15:00,
2013-02-23 02:25:00,27.7,27.7,30.23,ESE,116,0.0,0.0,100,0.00,CLR,,0.00,WeatherDisplay:10.37,2013-02-23 07:25:00,
2013-02-23 02:30:00,27.8,27.8,30.22,ESE,116,0.0,0.0,100,0.00,CLR,,0.00,WeatherDisplay:10.37,2013-02-23 07:30:00,
2013-02-23 02:40:00,27.9,27.9,30.22,ESE,116,0.0,0.0,100,0.00,CLR,,0.00,WeatherDisplay:10.37,2013-02-23 07:40:00,
2013-02-23 02:45:00,28.0,28.0,30.22,ESE,116,0.0,0.0,100,0.00,CLR,,0.00,WeatherDisplay:10.37,2013-02-23 07:45:00,
2013-02-23 02:55:00,28.1,28.2,30.22,ESE,116,0.0,0.0,100,0.00,CLR,,0.00,WeatherDisplay:10.37,2013-02-23 07:55:00,
2013-02-23 03:00:00,28.3,28.3,30.22,ESE,116,0.0,0.0,100,0.00,CLR,,0.00,WeatherDisplay:10.37,2013-02-23 08:00:00,
2013-02-23 03:10:00,28.5,28.5,30.22,ESE,116,0.0,0.0,100,0.00,CLR,,0.00,WeatherDisplay:10.37,2013-02-23 08:10:00,
2013-02-23 03:15:00,28.6,28.6,30.22,ESE,116,0.0,0.0,100,0.00,CLR,,0.00,WeatherDisplay:10.37,2013-02-23 08:15:00,
2013-02-23 03:25:00,28.8,28.5,30.22,ESE,116,0.0,0.0,99,0.00,CLR,,0.00,WeatherDisplay:10.37,2013-02-23 08:25:00,
2013-02-23 03:30:00,28.9,28.9,30.22,ESE,116,0.0,0.0,100,0.00,CLR,,0.00,WeatherDisplay:10.37,2013-02-23 08:30:00,
2013-02-23 03:40:00,28.9,28.9,30.22,ESE,116,0.0,0.0,100,0.00,CLR,,0.00,WeatherDisplay:10.37,2013-02-23 08:40:00,
2013-02-23 03:45:00,28.9,28.9,30.22,ESE,116,0.0,0.0,100,0.00,CLR,,0.00,WeatherDisplay:10.37,2013-02-23 08:45:00,
2013-02-23 03:55:00,28.9,28.9,30.21,ESE,116,0.0,0.0,100,0.00,CLR,,0.00,WeatherDisplay:10.37,2013-02-23 08:55:00,
2013-02-23 04:00:00,28.8,28.8,30.21,ESE,116,0.0,0.0,100,0.00,CLR,,0.00,WeatherDisplay:10.37,2013-02-23 09:00:00,
2013-02-23 04:10:00,28.7,28.5,30.20,ESE,115,0.0,0.0,99,0.00,CLR,,0.00,WeatherDisplay:10.37,2013-02-23 09:10:00,
2013-02-23 04:15:00,28.8,28.5,30.20,SE,145,2.0,6.0,99,0.00,CLR,,0.00,WeatherDisplay:10.37,2013-02-23 09:15:00,
2013-02-23 04:25:00,28.7,28.5,30.20,South,188,0.0,6.0,99,0.00,CLR,,0.00,WeatherDisplay:10.37,2013-02-23 09:25:00,
2013-02-23 04:30:00,28.8,28.5,30.20,South,189,1.0,7.0,99,0.00,CLR,,0.00,WeatherDisplay:10.37,2013-02-23 09:30:00,
2013-02-23 04:40:00,28.8,28.8,30.20,East,94,0.0,0.0,100,0.00,CLR,,0.00,WeatherDisplay:10.37,2013-02-23 09:40:00,
2013-02-23 04:45:00,28.8,28.6,30.21,East,94,1.0,6.0,99,0.00,CLR,,0.00,WeatherDisplay:10.37,2013-02-23 09:45:00,
2013-02-23 04:55:00,28.9,28.6,30.21,ESE,121,0.0,0.0,99,0.00,CLR,,0.00,WeatherDisplay:10.37,2013-02-23 09:55:00,
2013-02-23 05:00:00,28.9,28.7,30.21,SE,132,0.0,6.0,99,0.00,CLR,,0.00,WeatherDisplay:10.37,2013-02-23 10:00:00,
2013-02-23 05:10:00,28.9,28.9,30.21,SE,144,0.0,0.0,100,0.00,CLR,,0.00,WeatherDisplay:10.37,2013-02-23 10:10:00,
2013-02-23 05:15:00,28.9,28.9,30.21,SE,144,0.0,0.0,100,0.00,CLR,,0.00,WeatherDisplay:10.37,2013-02-23 10:15:00,
2013-02-23 05:25:00,28.9,28.7,30.21,SE,144,0.0,0.0,99,0.00,CLR,,0.00,WeatherDisplay:10.37,2013-02-23 10:25:00,
2013-02-23 05:30:00,29.0,29.0,30.21,SE,144,0.0,0.0,100,0.00,CLR,,0.00,WeatherDisplay:10.37,2013-02-23 10:30:00,
2013-02-23 05:40:00,29.0,29.0,30.21,SE,144,0.0,0.0,100,0.00,CLR,,0.00,WeatherDisplay:10.37,2013-02-23 10:40:00,
2013-02-23 05:45:00,29.1,29.1,30.21,SE,144,0.0,0.0,100,0.00,CLR,,0.00,WeatherDisplay:10.37,2013-02-23 10:45:00,
2013-02-23 05:55:00,29.1,29.1,30.21,East,99,0.0,0.0,100,0.00,CLR,,0.00,WeatherDisplay:10.37,2013-02-23 10:55:00,
2013-02-23 06:00:00,29.1,29.1,30.21,East,93,0.0,0.0,100,0.00,CLR,,0.00,WeatherDisplay:10.37,2013-02-23 11:00:00,
2013-02-23 06:10:00,29.1,29.1,30.21,SE,135,0.0,5.0,100,0.00,CLR,,0.00,WeatherDisplay:10.37,2013-02-23 11:10:00,
2013-02-23 06:15:00,29.0,29.0,30.21,SE,138,0.0,3.0,100,0.00,CLR,,0.00,WeatherDisplay:10.37,2013-02-23 11:15:00,
2013-02-23 06:25:00,29.1,29.1,30.20,East,95,0.0,7.0,100,0.00,CLR,,0.00,WeatherDisplay:10.37,2013-02-23 11:25:00,
2013-02-23 06:30:00,29.1,29.1,30.21,ENE,73,0.0,0.0,100,0.00,CLR,,0.00,WeatherDisplay:10.37,2013-02-23 11:30:00,
2013-02-23 06:40:00,29.3,29.3,30.20,ENE,71,0.0,0.0,100,0.00,CLR,,0.00,WeatherDisplay:10.37,2013-02-23 11:40:00,
2013-02-23 06:45:00,29.3,29.3,30.20,ENE,71,0.0,0.0,100,0.00,CLR,,0.00,WeatherDisplay:10.37,2013-02-23 11:45:00,
2013-02-23 06:55:00,29.3,29.3,30.20,ENE,71,0.0,0.0,100,0.00,CLR,,0.00,WeatherDisplay:10.37,2013-02-23 11:55:00,
2013-02-23 07:00:00,29.3,29.3,30.20,ENE,71,0.0,0.0,100,0.00,CLR,,0.00,WeatherDisplay:10.37,2013-02-23 12:00:00,
2013-02-23 07:10:00,29.3,29.3,30.19,ENE,71,0.0,0.0,100,0.00,CLR,,0.00,WeatherDisplay:10.37,2013-02-23 12:10:00,
2013-02-23 07:15:00,29.3,29.3,30.19,ENE,71,0.0,0.0,100,0.00,CLR,,0.00,WeatherDisplay:10.37,2013-02-23 12:15:00,
2013-02-23 07:25:00,29.4,29.4,30.19,South,173,0.0,0.0,100,0.00,CLR,,0.00,WeatherDisplay:10.37,2013-02-23 12:25:00,
2013-02-23 07:30:00,29.5,29.5,30.19,South,189,0.0,0.0,100,0.00,CLR,,0.00,WeatherDisplay:10.37,2013-02-23 12:30:00,
2013-02-23 07:40:00,29.7,29.7,30.19,South,176,2.0,7.0,100,0.00,CLR,,0.00,WeatherDisplay:10.37,2013-02-23 12:40:00,
2013-02-23 07:45:00,29.7,29.4,30.19,SSE,160,0.0,6.0,99,0.00,CLR,,0.00,WeatherDisplay:10.37,2013-02-23 12:45:00,
2013-02-23 07:55:00,29.9,29.7,30.19,SSE,160,0.0,0.0,99,0.00,CLR,,0.00,WeatherDisplay:10.37,2013-02-23 12:55:00,
2013-02-23 08:00:00,30.0,29.8,30.19,SE,135,2.0,6.0,99,0.00,CLR,,0.00,WeatherDisplay:10.37,2013-02-23 13:00:00,
2013-02-23 08:10:00,30.2,30.2,30.19,SW,227,0.0,0.0,100,0.00,CLR,,0.00,WeatherDisplay:10.37,2013-02-23 13:10:00,
2013-02-23 08:15:00,30.2,30.2,30.19,SW,225,0.0,5.0,100,0.00,CLR,,0.00,WeatherDisplay:10.37,2013-02-23 13:15:00,
2013-02-23 08:25:00,30.4,30.4,30.19,SSW,208,0.0,0.0,100,0.00,CLR,,0.00,WeatherDisplay:10.37,2013-02-23 13:25:00,
2013-02-23 08:30:00,30.4,30.5,30.19,SSW,208,0.0,0.0,100,0.00,CLR,,0.00,WeatherDisplay:10.37,2013-02-23 13:30:00,
2013-02-23 08:40:00,30.5,30.5,30.19,SSW,207,1.0,6.0,100,0.00,CLR,,0.00,WeatherDisplay:10.37,2013-02-23 13:40:00,
2013-02-23 08:45:00,30.4,30.4,30.19,SW,222,0.0,5.0,100,0.00,CLR,,0.00,WeatherDisplay:10.37,2013-02-23 13:45:00,
2013-02-23 08:55:00,30.4,30.4,30.19,SE,141,0.0,5.0,100,0.00,CLR,,0.00,WeatherDisplay:10.37,2013-02-23 13:55:00,
2013-02-23 09:00:00,30.5,30.5,30.19,SSE,147,0.0,0.0,100,0.00,CLR,,0.00,WeatherDisplay:10.37,2013-02-23 14:00:00,
2013-02-23 09:10:00,30.6,30.6,30.19,SE,126,1.0,5.0,100,0.00,CLR,,0.00,WeatherDisplay:10.37,2013-02-23 14:10:00,
2013-02-23 09:15:00,30.5,30.5,30.18,SSE,156,2.0,6.0,100,0.00,CLR,,0.00,WeatherDisplay:10.37,2013-02-23 14:15:00,
2013-02-23 09:25:00,30.7,30.7,30.18,South,180,0.0,0.0,100,0.00,CLR,,0.00,WeatherDisplay:10.37,2013-02-23 14:25:00,
2013-02-23 09:30:00,30.8,30.8,30.18,South,181,0.0,0.0,100,0.00,CLR,,0.00,WeatherDisplay:10.37,2013-02-23 14:30:00,
2013-02-23 09:40:00,30.9,30.9,30.17,SSE,156,2.0,6.0,100,0.00,CLR,,0.00,WeatherDisplay:10.37,2013-02-23 14:40:00,
2013-02-23 09:45:00,30.9,30.9,30.17,SSE,158,0.0,6.0,100,0.00,CLR,,0.00,WeatherDisplay:10.37,2013-02-23 14:45:00,
2013-02-23 09:55:00,30.9,30.9,30.17,SE,141,0.0,7.0,100,0.00,CLR,,0.00,WeatherDisplay:10.37,2013-02-23 14:55:00,
2013-02-23 10:00:00,31.0,31.0,30.17,East,97,0.0,0.0,100,0.00,CLR,,0.00,WeatherDisplay:10.37,2013-02-23 15:00:00,
2013-02-23 10:10:00,31.1,31.1,30.17,SE,139,0.0,7.0,100,0.00,CLR,,0.00,WeatherDisplay:10.37,2013-02-23 15:10:00,
2013-02-23 10:15:00,31.2,31.2,30.17,SSE,167,0.0,5.0,100,0.00,CLR,,0.00,WeatherDisplay:10.37,2013-02-23 15:15:00,
2013-02-23 10:25:00,31.4,31.4,30.16,SSE,158,5.0,8.0,100,0.00,CLR,,0.00,WeatherDisplay:10.37,2013-02-23 15:25:00,
2013-02-23 10:30:00,31.5,31.5,30.16,SE,125,1.0,7.0,100,0.00,CLR,,0.00,WeatherDisplay:10.37,2013-02-23 15:30:00,
2013-02-23 10:40:00,31.6,31.6,30.16,SSE,152,0.0,6.0,100,0.00,CLR,,0.00,WeatherDisplay:10.37,2013-02-23 15:40:00,
2013-02-23 10:45:00,31.7,31.7,30.16,SSE,163,1.0,7.0,100,0.00,CLR,,0.00,WeatherDisplay:10.37,2013-02-23 15:45:00,
2013-02-23 10:55:00,31.9,31.9,30.16,SSW,205,1.0,7.0,100,0.00,CLR,,0.00,WeatherDisplay:10.37,2013-02-23 15:55:00,
2013-02-23 11:00:00,32.0,32.0,30.16,South,179,1.0,7.0,100,0.00,CLR,,0.00,WeatherDisplay:10.37,2013-02-23 16:00:00,
2013-02-23 11:10:00,31.8,31.8,30.15,SE,136,5.0,8.0,100,0.00,CLR,,0.00,WeatherDisplay:10.37,2013-02-23 16:10:00,
2013-02-23 11:15:00,31.8,31.8,30.15,South,173,0.0,6.0,100,0.00,CLR,,0.00,WeatherDisplay:10.37,2013-02-23 16:15:00,
2013-02-23 11:25:00,32.0,32.0,30.14,South,189,0.0,5.0,100,0.00,CLR,,0.00,WeatherDisplay:10.37,2013-02-23 16:25:00,
2013-02-23 11:30:00,32.0,32.0,30.13,South,171,0.0,8.0,100,0.00,CLR,,0.00,WeatherDisplay:10.37,2013-02-23 16:30:00,
2013-02-23 11:40:00,32.2,32.2,30.13,South,186,3.0,6.0,100,0.00,CLR,,0.00,WeatherDisplay:10.37,2013-02-23 16:40:00,
2013-02-23 11:45:00,32.4,32.4,30.13,WSW,241,0.0,0.0,100,0.00,CLR,,0.00,WeatherDisplay:10.37,2013-02-23 16:45:00,
2013-02-23 11:55:00,32.5,32.5,30.12,SSE,158,3.0,6.0,100,0.00,CLR,,0.00,WeatherDisplay:10.37,2013-02-23 16:55:00,
2013-02-23 12:00:00,32.6,32.6,30.12,ESE,115,0.0,3.0,100,0.00,CLR,,0.00,WeatherDisplay:10.37,2013-02-23 17:00:00,
2013-02-23 12:10:00,32.6,32.6,30.12,ESE,107,3.0,8.0,100,0.00,CLR,,0.00,WeatherDisplay:10.37,2013-02-23 17:10:00,
2013-02-23 12:15:00,32.7,32.7,30.11,ESE,113,1.0,6.0,100,0.00,CLR,,0.00,WeatherDisplay:10.37,2013-02-23 17:15:00,
2013-02-23 12:25:00,32.9,32.9,30.11,SSE,153,6.0,9.0,100,0.00,CLR,,0.00,WeatherDisplay:10.37,2013-02-23 17:25:00,
2013-02-23 12:30:00,32.8,32.8,30.11,SSE,153,0.0,8.0,100,0.00,CLR,,0.00,WeatherDisplay:10.37,2013-02-23 17:30:00,
2013-02-23 12:40:00,33.0,33.0,30.10,ESE,116,1.0,9.0,100,0.00,CLR,,0.00,WeatherDisplay:10.37,2013-02-23 17:40:00,
2013-02-23 12:45:00,33.1,33.1,30.10,ESE,115,0.0,6.0,100,0.00,CLR,,0.00,WeatherDisplay:10.37,2013-02-23 17:45:00,
2013-02-23 12:55:00,33.4,33.4,30.10,East,99,3.0,9.0,100,0.00,CLR,,0.00,WeatherDisplay:10.37,2013-02-23 17:55:00,
2013-02-23 13:00:00,33.2,33.2,30.10,East,79,2.0,8.0,100,0.00,CLR,,0.00,WeatherDisplay:10.37,2013-02-23 18:00:00,
2013-02-23 13:10:00,32.8,32.8,30.10,ESE,114,0.0,7.0,100,0.00,CLR,,0.00,WeatherDisplay:10.37,2013-02-23 18:10:00,
2013-02-23 13:15:00,32.5,32.5,30.09,SE,124,6.0,9.0,100,0.00,CLR,,0.00,WeatherDisplay:10.37,2013-02-23 18:15:00,
2013-02-23 13:25:00,32.7,32.7,30.09,ESE,114,0.0,7.0,100,0.00,CLR,,0.00,WeatherDisplay:10.37,2013-02-23 18:25:00,
2013-02-23 13:30:00,32.9,32.9,30.09,ESE,116,0.0,3.0,100,0.00,CLR,,0.00,WeatherDisplay:10.37,2013-02-23 18:30:00,
2013-02-23 13:40:00,33.2,33.2,30.08,East,101,3.0,9.0,100,0.00,CLR,,0.00,WeatherDisplay:10.37,2013-02-23 18:40:00,
2013-02-23 13:45:00,33.0,33.0,30.08,ESE,102,5.0,9.0,100,0.00,CLR,,0.00,WeatherDisplay:10.37,2013-02-23 18:45:00,
2013-02-23 13:55:00,33.0,33.0,30.08,SSE,147,1.0,6.0,100,0.00,CLR,,0.00,WeatherDisplay:10.37,2013-02-23 18:55:00,
2013-02-23 14:00:00,33.1,33.1,30.08,SE,135,3.0,8.0,100,0.00,CLR,,0.00,WeatherDisplay:10.37,2013-02-23 19:00:00,
2013-02-23 14:10:00,33.1,33.1,30.08,SE,134,0.0,7.0,100,0.00,CLR,,0.00,WeatherDisplay:10.37,2013-02-23 19:10:00,
2013-02-23 14:15:00,33.0,33.0,30.08,SSE,158,0.0,6.0,100,0.00,CLR,,0.00,WeatherDisplay:10.37,2013-02-23 19:15:00,
2013-02-23 14:25:00,33.1,33.1,30.08,SE,131,1.0,7.0,100,0.00,CLR,,0.00,WeatherDisplay:10.37,2013-02-23 19:25:00,
2013-02-23 14:30:00,32.9,32.9,30.08,ESE,121,0.0,7.0,100,0.00,CLR,,0.00,WeatherDisplay:10.37,2013-02-23 19:30:00,
2013-02-23 14:40:00,32.8,32.8,30.08,ESE,102,0.0,0.0,100,0.00,CLR,,0.00,WeatherDisplay:10.37,2013-02-23 19:40:00,
2013-02-23 14:45:00,32.8,32.8,30.07,ESE,102,0.0,0.0,100,0.00,CLR,,0.00,WeatherDisplay:10.37,2013-02-23 19:45:00,
2013-02-23 14:55:00,32.6,32.6,30.07,ESE,102,0.0,0.0,100,0.00,CLR,,0.00,WeatherDisplay:10.37,2013-02-23 19:55:00,
2013-02-23 15:00:00,32.6,32.6,30.07,ESE,102,0.0,0.0,100,0.00,CLR,,0.00,WeatherDisplay:10.37,2013-02-23 20:00:00,
2013-02-23 15:10:00,32.6,32.6,30.07,ESE,102,0.0,0.0,100,0.00,CLR,,0.00,WeatherDisplay:10.37,2013-02-23 20:10:00,
2013-02-23 15:15:00,32.6,32.6,30.07,ESE,102,0.0,0.0,100,0.00,CLR,,0.00,WeatherDisplay:10.37,2013-02-23 20:15:00,
2013-02-23 15:25:00,32.5,32.5,30.06,ESE,102,0.0,0.0,100,0.00,CLR,,0.00,WeatherDisplay:10.37,2013-02-23 20:25:00,
2013-02-23 15:30:00,32.6,32.6,30.07,ESE,102,0.0,0.0,100,0.00,CLR,,0.00,WeatherDisplay:10.37,2013-02-23 20:30:00,
2013-02-23 15:40:00,32.7,32.7,30.07,ESE,102,0.0,0.0,100,0.00,CLR,,0.00,WeatherDisplay:10.37,2013-02-23 20:40:00,
2013-02-23 15:45:00,32.7,32.7,30.06,ESE,102,0.0,0.0,100,0.00,CLR,,0.00,WeatherDisplay:10.37,2013-02-23 20:45:00,
2013-02-23 15:55:00,32.5,32.5,30.06,ESE,102,0.0,0.0,100,0.00,CLR,,0.00,WeatherDisplay:10.37,2013-02-23 20:55:00,
2013-02-23 16:00:00,32.5,32.5,30.06,ESE,102,0.0,0.0,100,0.00,CLR,,0.00,WeatherDisplay:10.37,2013-02-23 21:00:00,
2013-02-23 16:10:00,32.5,32.5,30.05,ESE,102,0.0,0.0,100,0.00,CLR,,0.00,WeatherDisplay:10.37,2013-02-23 21:10:00,
2013-02-23 16:15:00,32.6,32.6,30.05,ESE,102,0.0,0.0,100,0.00,CLR,,0.00,WeatherDisplay:10.37,2013-02-23 21:15:00,
2013-02-23 16:25:00,32.7,32.7,30.04,ESE,102,0.0,0.0,100,0.00,CLR,,0.00,WeatherDisplay:10.37,2013-02-23 21:25:00,
2013-02-23 16:30:00,32.7,32.7,30.04,ESE,102,0.0,0.0,100,0.00,CLR,,0.00,WeatherDisplay:10.37,2013-02-23 21:30:00,
2013-02-23 16:40:00,32.5,32.5,30.04,ESE,102,0.0,0.0,100,0.00,CLR,,0.00,WeatherDisplay:10.37,2013-02-23 21:40:00,
2013-02-23 16:45:00,32.5,32.5,30.04,ESE,102,0.0,0.0,100,0.00,CLR,,0.00,WeatherDisplay:10.37,2013-02-23 21:45:00,
2013-02-23 16:55:00,32.3,32.3,30.04,ESE,102,0.0,0.0,100,0.00,CLR,,0.00,WeatherDisplay:10.37,2013-02-23 21:55:00,
2013-02-23 17:00:00,32.3,32.3,30.04,ESE,102,0.0,0.0,100,0.00,CLR,,0.00,WeatherDisplay:10.37,2013-02-23 22:00:00,
2013-02-23 17:10:00,32.3,32.3,30.04,ESE,102,0.0,0.0,100,0.00,CLR,,0.00,WeatherDisplay:10.37,2013-02-23 22:10:00,
2013-02-23 17:15:00,32.4,32.4,30.04,ESE,102,0.0,0.0,100,0.00,CLR,,0.00,WeatherDisplay:10.37,2013-02-23 22:15:00,
2013-02-23 17:25:00,32.3,32.3,30.04,ESE,102,0.0,0.0,100,0.00,CLR,,0.00,WeatherDisplay:10.37,2013-02-23 22:25:00,
2013-02-23 17:30:00,32.3,32.3,30.04,ESE,102,0.0,0.0,100,0.00,CLR,,0.00,WeatherDisplay:10.37,2013-02-23 22:30:00,
2013-02-23 17:40:00,32.2,32.2,30.03,ESE,102,0.0,0.0,100,0.00,CLR,,0.00,WeatherDisplay:10.37,2013-02-23 22:40:00,
2013-02-23 17:45:00,32.2,32.2,30.03,ESE,102,0.0,0.0,100,0.00,CLR,,0.00,WeatherDisplay:10.37,2013-02-23 22:45:00,
2013-02-23 17:55:00,32.1,32.1,30.03,ESE,102,0.0,0.0,100,0.00,CLR,,0.00,WeatherDisplay:10.37,2013-02-23 22:55:00,
2013-02-23 18:00:00,32.1,32.1,30.03,ESE,102,0.0,0.0,100,0.00,CLR,,0.00,WeatherDisplay:10.37,2013-02-23 23:00:00,
2013-02-23 18:10:00,32.1,32.1,30.03,ESE,102,0.0,0.0,100,0.00,CLR,,0.00,WeatherDisplay:10.37,2013-02-23 23:10:00,
2013-02-23 18:15:00,32.1,32.1,30.03,ESE,102,0.0,0.0,100,0.00,CLR,,0.00,WeatherDisplay:10.37,2013-02-23 23:15:00,
2013-02-23 18:25:00,32.2,32.2,30.03,ESE,102,0.0,0.0,100,0.00,CLR,,0.00,WeatherDisplay:10.37,2013-02-23 23:25:00,
2013-02-23 18:30:00,32.2,32.2,30.02,ESE,102,0.0,0.0,100,0.00,CLR,,0.00,WeatherDisplay:10.37,2013-02-23 23:30:00,
2013-02-23 18:40:00,32.1,32.1,30.02,ESE,102,0.0,0.0,100,0.00,CLR,,0.00,WeatherDisplay:10.37,2013-02-23 23:40:00,
2013-02-23 18:45:00,32.0,32.0,30.02,ESE,102,0.0,0.0,100,0.00,CLR,,0.00,WeatherDisplay:10.37,2013-02-23 23:45:00,
2013-02-23 18:55:00,32.1,32.1,30.02,ESE,102,0.0,0.0,100,0.00,CLR,,0.00,WeatherDisplay:10.37,2013-02-23 23:55:00,
2013-02-23 19:00:00,32.1,32.1,30.02,ESE,102,0.0,0.0,100,0.00,CLR,,0.00,WeatherDisplay:10.37,2013-02-24 00:00:00,
2013-02-23 19:10:00,32.1,32.1,30.01,ESE,102,0.0,0.0,100,0.00,CLR,,0.00,WeatherDisplay:10.37,2013-02-24 00:10:00,
2013-02-23 19:15:00,32.1,32.1,30.01,ESE,102,0.0,0.0,100,0.00,CLR,,0.00,WeatherDisplay:10.37,2013-02-24 00:15:00,
2013-02-23 19:25:00,32.1,32.1,30.01,ESE,102,0.0,0.0,100,0.00,CLR,,0.00,WeatherDisplay:10.37,2013-02-24 00:25:00,
2013-02-23 19:30:00,32.1,32.1,30.01,ESE,102,0.0,0.0,100,0.00,CLR,,0.00,WeatherDisplay:10.37,2013-02-24 00:30:00,
2013-02-23 19:40:00,32.1,32.1,30.01,ESE,102,0.0,0.0,100,0.00,CLR,,0.00,WeatherDisplay:10.37,2013-02-24 00:40:00,
2013-02-23 19:45:00,32.1,32.1,30.01,ESE,102,0.0,0.0,100,0.00,CLR,,0.00,WeatherDisplay:10.37,2013-02-24 00:45:00,
2013-02-23 19:55:00,32.1,32.1,30.00,ESE,102,0.0,0.0,100,0.00,CLR,,0.00,WeatherDisplay:10.37,2013-02-24 00:55:00,
2013-02-23 20:00:00,32.2,32.2,30.00,ESE,102,0.0,0.0,100,0.00,CLR,,0.00,WeatherDisplay:10.37,2013-02-24 01:00:00,
2013-02-23 20:10:00,32.2,32.2,30.00,ESE,102,0.0,0.0,100,0.00,CLR,,0.00,WeatherDisplay:10.37,2013-02-24 01:10:00,
2013-02-23 20:15:00,32.2,32.2,30.00,ESE,102,0.0,0.0,100,0.00,CLR,,0.00,WeatherDisplay:10.37,2013-02-24 01:15:00,
2013-02-23 20:25:00,32.1,32.1,29.99,ESE,102,0.0,0.0,100,0.00,CLR,,0.00,WeatherDisplay:10.37,2013-02-24 01:25:00,
2013-02-23 20:30:00,32.0,32.0,30.00,ESE,102,0.0,0.0,100,0.00,CLR,,0.00,WeatherDisplay:10.37,2013-02-24 01:30:00,
2013-02-23 20:40:00,32.1,32.1,29.99,ESE,102,0.0,0.0,100,0.00,CLR,,0.00,WeatherDisplay:10.37,2013-02-24 01:40:00,
2013-02-23 20:45:00,32.0,32.0,29.99,ESE,102,0.0,0.0,100,0.00,CLR,,0.00,WeatherDisplay:10.37,2013-02-24 01:45:00,
2013-02-23 20:55:00,31.9,31.9,29.99,ESE,102,0.0,0.0,100,0.00,CLR,,0.00,WeatherDisplay:10.37,2013-02-24 01:55:00,
2013-02-23 21:00:00,31.9,31.9,29.99,ESE,102,0.0,0.0,100,0.00,CLR,,0.00,WeatherDisplay:10.37,2013-02-24 02:00:00,
2013-02-23 21:10:00,32.0,32.0,29.98,ESE,102,0.0,0.0,100,0.00,CLR,,0.00,WeatherDisplay:10.37,2013-02-24 02:10:00,
2013-02-23 21:15:00,32.0,32.0,29.98,ESE,102,0.0,0.0,100,0.00,CLR,,0.00,WeatherDisplay:10.37,2013-02-24 02:15:00,
2013-02-23 21:25:00,32.0,32.0,29.98,ESE,102,0.0,0.0,100,0.00,CLR,,0.00,WeatherDisplay:10.37,2013-02-24 02:25:00,
2013-02-23 21:30:00,32.0,32.0,29.99,ESE,102,0.0,0.0,100,0.00,CLR,,0.00,WeatherDisplay:10.37,2013-02-24 02:30:00,
2013-02-23 21:40:00,32.1,32.1,29.98,ESE,102,0.0,0.0,100,0.00,CLR,,0.00,WeatherDisplay:10.37,2013-02-24 02:40:00,
2013-02-23 21:45:00,32.1,32.1,29.98,ESE,102,0.0,0.0,100,0.00,CLR,,0.00,WeatherDisplay:10.37,2013-02-24 02:45:00,
2013-02-23 21:55:00,32.1,32.1,29.98,ESE,102,0.0,0.0,100,0.00,CLR,,0.00,WeatherDisplay:10.37,2013-02-24 02:55:00,
2013-02-23 22:00:00,32.1,32.1,29.97,ESE,102,0.0,0.0,100,0.00,CLR,,0.00,WeatherDisplay:10.37,2013-02-24 03:00:00,
2013-02-23 22:10:00,32.1,32.1,29.96,ESE,102,0.0,0.0,100,0.00,CLR,,0.00,WeatherDisplay:10.37,2013-02-24 03:10:00,
2013-02-23 22:15:00,32.1,32.1,29.97,ESE,102,0.0,0.0,100,0.00,CLR,,0.00,WeatherDisplay:10.37,2013-02-24 03:15:00,
2013-02-23 22:25:00,32.2,32.2,29.96,ESE,102,0.0,0.0,100,0.00,CLR,,0.00,WeatherDisplay:10.37,2013-02-24 03:25:00,
2013-02-23 22:30:00,32.2,32.2,29.95,ESE,102,0.0,0.0,100,0.00,CLR,,0.00,WeatherDisplay:10.37,2013-02-24 03:30:00,
2013-02-23 22:40:00,32.1,32.1,29.95,ESE,102,0.0,0.0,100,0.00,CLR,,0.00,WeatherDisplay:10.37,2013-02-24 03:40:00,
2013-02-23 22:45:00,32.1,32.1,29.94,ESE,102,0.0,0.0,100,0.00,CLR,,0.00,WeatherDisplay:10.37,2013-02-24 03:45:00,
2013-02-23 22:55:00,32.2,32.2,29.94,ESE,102,0.0,0.0,100,0.00,CLR,,0.00,WeatherDisplay:10.37,2013-02-24 03:55:00,
2013-02-23 23:00:00,32.2,32.2,29.94,ESE,102,0.0,0.0,100,0.00,CLR,,0.00,WeatherDisplay:10.37,2013-02-24 04:00:00,
2013-02-23 23:10:00,32.2,32.2,29.94,ESE,102,0.0,0.0,100,0.00,CLR,,0.00,WeatherDisplay:10.37,2013-02-24 04:10:00,
2013-02-23 23:15:00,32.2,32.2,29.93,ESE,102,0.0,0.0,100,0.00,CLR,,0.00,WeatherDisplay:10.37,2013-02-24 04:15:00,
2013-02-23 23:25:00,32.2,32.2,29.93,ESE,102,0.0,0.0,100,0.00,CLR,,0.00,WeatherDisplay:10.37,2013-02-24 04:25:00,
2013-02-23 23:30:00,32.2,32.2,29.93,ESE,102,0.0,0.0,100,0.00,CLR,,0.00,WeatherDisplay:10.37,2013-02-24 04:30:00,
2013-02-23 23:40:00,32.2,32.2,29.93,ESE,102,0.0,0.0,100,0.00,CLR,,0.00,WeatherDisplay:10.37,2013-02-24 04:40:00,
2013-02-23 23:45:00,32.3,32.3,29.93,ESE,102,0.0,0.0,100,0.00,CLR,,0.00,WeatherDisplay:10.37,2013-02-24 04:45:00,
2013-02-23 23:55:00,32.2,32.2,29.92,ESE,102,0.0,0.0,100,0.00,CLR,,0.00,WeatherDisplay:10.37,2013-02-24 04:55:00,